Weather History for Oelwein, IA

Change the Weather History Date:

Saturday, April 5, 2014

  Actual Average Record
Temperature  
Mean Temperature 38 °F -  
Max Temperature 50 °F 53 °F 82 °F (1991)
Min Temperature 26 °F 31 °F 18 °F (1979)
Degree Days  
Heating Degree Days 27    
Moisture  
Dew Point 30 °F    
Average Humidity 77    
Maximum Humidity 100    
Minimum Humidity 40    
Precipitation  
Precipitation 0.00 in - - ()
Sea Level Pressure  
Sea Level Pressure 30.12 in    
Wind  
Wind Speed 8 mph (SW)    
Max Wind Speed 13 mph    
Max Gust Speed 18 mph    
Visibility 9 miles    
Events      
Averages and records for this station are not official NWS values.
T = Trace of Precipitation, MM = Missing Value Source: NWS Daily Summary

Daily Weather History Graph

Daily Weather History Graph

Search for Another Location

Airport:

Trip Planner

Search our weather history database for the weather conditions in past years. The results will help you decide how hot, cold, wet, or windy it might be!

Date:

Astronomy

Apr. 05, 2014 Rise Set
Actual Time 6:43 AM CDT 7:38 PM CDT
Civil Twilight 6:14 AM CDT 8:07 PM CDT
Nautical Twilight 5:40 AM CDT 8:41 PM CDT
Astronomical Twilight 5:04 AM CDT 9:17 PM CDT
Moon 10:46 AM CDT (4/5) 12:53 AM CDT (4/5)
Length of Visible Light 13h 52m
Length of Day
12h 55m
Waxing Crescent, 34% of the Moon is Illuminated
Apr 5
Waxing Crescent
Apr 7
First Quarter
Apr 15
Full
Apr 22
Last Quarter
Apr 29
New

Hourly Weather History & Observations

Time (CDT) Temp. Windchill Dew Point Humidity Pressure Visibility Wind Dir Wind Speed Gust Speed Precip Events Conditions
12:15 AM 30.2 °F 21.9 °F 30.2 °F 100% 30.08 in 10.0 mi WNW 9.2 mph - N/A   Clear
12:35 AM 30.2 °F 21.9 °F 30.2 °F 100% 30.09 in 10.0 mi WNW 9.2 mph - N/A   Clear
12:55 AM 30.2 °F 21.9 °F 30.2 °F 100% 30.09 in 10.0 mi West 9.2 mph - N/A   Clear
1:15 AM 30.2 °F 22.6 °F 30.2 °F 100% 30.10 in 10.0 mi West 8.1 mph - N/A   Clear
1:35 AM 30.2 °F 21.9 °F 30.2 °F 100% 30.10 in 10.0 mi West 9.2 mph - N/A   Clear
1:55 AM 30.2 °F 22.6 °F 30.2 °F 100% 30.11 in 10.0 mi West 8.1 mph - N/A   Clear
2:15 AM 28.4 °F 20.4 °F 28.4 °F 100% 30.11 in 10.0 mi West 8.1 mph - N/A   Clear
2:35 AM 28.4 °F 20.4 °F 28.4 °F 100% 30.10 in 10.0 mi WNW 8.1 mph - N/A   Clear
2:55 AM 28.4 °F 21.2 °F 28.4 °F 100% 30.11 in 10.0 mi West 6.9 mph - N/A   Clear
3:15 AM 28.4 °F 20.4 °F 28.4 °F 100% 30.11 in 10.0 mi West 8.1 mph - N/A   Clear
3:35 AM 28.4 °F 21.2 °F 28.4 °F 100% 30.11 in 10.0 mi West 6.9 mph - N/A   Clear
3:55 AM - - - N/A% 30.12 in 10.0 mi West 6.9 mph - N/A   Clear
4:15 AM 26.6 °F 20.0 °F 26.6 °F 100% 30.12 in 10.0 mi West 5.8 mph - N/A   Clear
4:35 AM 26.6 °F 21.2 °F 26.6 °F 100% 30.12 in 8.0 mi West 4.6 mph - N/A   Clear
4:55 AM 26.6 °F 20.0 °F 26.6 °F 100% 30.12 in 7.0 mi West 5.8 mph - N/A   Clear
5:15 AM 26.6 °F 20.0 °F 26.6 °F 100% 30.12 in 7.0 mi West 5.8 mph - N/A   Clear
5:35 AM 26.6 °F 21.2 °F 26.6 °F 100% 30.12 in 7.0 mi West 4.6 mph - N/A   Clear
5:55 AM 26.6 °F 21.2 °F 26.6 °F 100% 30.13 in 7.0 mi West 4.6 mph - N/A   Clear
6:15 AM 26.6 °F 21.2 °F 26.6 °F 100% 30.13 in 6.0 mi WSW 4.6 mph - N/A   Clear
6:35 AM 26.6 °F 20.0 °F 26.6 °F 100% 30.13 in 4.0 mi West 5.8 mph - N/A   Clear
6:55 AM 26.6 °F 21.2 °F 26.6 °F 100% 30.14 in 5.0 mi WSW 4.6 mph - N/A   Clear
7:15 AM 26.6 °F 22.6 °F 26.6 °F 100% 30.15 in 4.0 mi WSW 3.5 mph - N/A   Clear
7:35 AM - - - N/A% 30.16 in 6.0 mi West 4.6 mph - N/A   Clear
7:55 AM 28.4 °F - 28.4 °F 100% 30.17 in 6.0 mi Calm Calm - N/A   Clear
8:15 AM 30.2 °F - 30.2 °F 100% 30.17 in 6.0 mi Calm Calm - N/A   Clear
8:35 AM 30.2 °F 25.4 °F 30.2 °F 100% 30.17 in 7.0 mi WNW 4.6 mph - N/A   Clear
8:55 AM 32.0 °F - 32.0 °F 100% 30.18 in 9.0 mi Calm Calm - N/A   Clear
9:15 AM 33.8 °F - 33.8 °F 100% 30.18 in 9.0 mi Calm Calm - N/A   Clear
9:35 AM 33.8 °F - 33.8 °F 100% 30.18 in 10.0 mi Calm Calm - N/A   Clear
9:55 AM 35.6 °F 31.7 °F 35.6 °F 100% 30.19 in 10.0 mi Variable 4.6 mph - N/A   Clear
10:15 AM 37.4 °F 32.8 °F 35.6 °F 93% 30.18 in 10.0 mi SSW 5.8 mph - N/A   Clear
10:35 AM 37.4 °F 32.1 °F 33.8 °F 87% 30.19 in 10.0 mi SSW 6.9 mph - N/A   Clear
10:55 AM 39.2 °F 35.0 °F 33.8 °F 81% 30.19 in 10.0 mi Variable 5.8 mph - N/A   Clear
11:15 AM 41.0 °F 36.4 °F 32.0 °F 70% 30.19 in 10.0 mi SSW 6.9 mph - N/A   Clear
11:35 AM 41.0 °F 34.7 °F 32.0 °F 70% 30.19 in 10.0 mi SW 10.4 mph 17.3 mph N/A   Clear
11:55 AM 42.8 °F 37.5 °F 32.0 °F 66% 30.19 in 10.0 mi SSW 9.2 mph 16.1 mph N/A   Partly Cloudy
12:15 PM 42.8 °F 37.5 °F 32.0 °F 66% 30.18 in 10.0 mi SW 9.2 mph - N/A   Partly Cloudy
12:35 PM 44.6 °F 38.4 °F 32.0 °F 61% 30.18 in 10.0 mi SSW 12.7 mph 18.4 mph N/A   Partly Cloudy
12:55 PM 44.6 °F 38.4 °F 30.2 °F 57% 30.18 in 10.0 mi SSW 12.7 mph - N/A   Partly Cloudy
1:15 PM 44.6 °F 39.7 °F 30.2 °F 57% 30.17 in 10.0 mi SW 9.2 mph 18.4 mph N/A   Partly Cloudy
1:35 PM 46.4 °F 41.1 °F 30.2 °F 53% 30.16 in 10.0 mi SSW 11.5 mph - N/A   Clear
1:55 PM 46.4 °F 41.1 °F 32.0 °F 57% 30.15 in 10.0 mi SW 11.5 mph - N/A   Partly Cloudy
2:15 PM 48.2 °F - 30.2 °F 50% 30.15 in 10.0 mi SW 11.5 mph 17.3 mph N/A   Partly Cloudy
2:35 PM 46.4 °F 43.5 °F 30.2 °F 53% 30.14 in 10.0 mi South 5.8 mph 15.0 mph N/A   Clear
2:55 PM 48.2 °F - 30.2 °F 50% 30.13 in 10.0 mi SSW 10.4 mph 17.3 mph N/A   Clear
3:15 PM 50.0 °F - 30.2 °F 47% 30.12 in 10.0 mi SSW 10.4 mph - N/A   Clear
3:35 PM 48.2 °F - 28.4 °F 46% 30.11 in 10.0 mi SSW 9.2 mph - N/A   Clear
3:55 PM 50.0 °F - 28.4 °F 43% 30.10 in 10.0 mi SW 8.1 mph - N/A   Clear
4:15 PM 50.0 °F - 28.4 °F 43% 30.10 in 10.0 mi SSW 8.1 mph - N/A   Clear
4:35 PM 50.0 °F - 26.6 °F 40% 30.09 in 10.0 mi Variable 5.8 mph 11.5 mph N/A   Clear
4:55 PM 50.0 °F - 26.6 °F 40% 30.09 in 10.0 mi SSW 8.1 mph - N/A   Clear
5:15 PM 50.0 °F - 26.6 °F 40% 30.08 in 10.0 mi South 10.4 mph - N/A   Clear
5:35 PM 50.0 °F - 28.4 °F 43% 30.08 in 10.0 mi South 10.4 mph - N/A   Clear
5:55 PM 50.0 °F - 28.4 °F 43% 30.08 in 10.0 mi South 11.5 mph - N/A   Clear
6:15 PM 50.0 °F - 28.4 °F 43% 30.08 in 10.0 mi SSW 12.7 mph - N/A   Clear
6:35 PM 50.0 °F - 30.2 °F 47% 30.08 in 10.0 mi South 9.2 mph - N/A   Clear
6:55 PM 48.2 °F - 32.0 °F 54% 30.08 in 10.0 mi South 10.4 mph - N/A   Clear
7:35 PM 44.6 °F 40.7 °F 30.2 °F 57% 30.07 in 10.0 mi South 6.9 mph - N/A   Clear
7:55 PM 42.8 °F 39.3 °F 30.2 °F 61% 30.07 in 10.0 mi South 5.8 mph - N/A   Clear
8:15 PM 41.0 °F 35.8 °F 30.2 °F 65% 30.07 in 10.0 mi South 8.1 mph - N/A   Clear
8:35 PM 41.0 °F 36.4 °F 30.2 °F 65% 30.07 in 10.0 mi SSE 6.9 mph - N/A   Clear
8:55 PM 39.2 °F 33.6 °F 30.2 °F 70% 30.08 in 10.0 mi SSE 8.1 mph - N/A   Clear
9:15 PM 37.4 °F 30.8 °F 30.2 °F 75% 30.07 in - SSE 9.2 mph - N/A   Clear
9:30 PM 37.4 °F 31.4 °F 30.2 °F 75% 30.07 in 10.0 mi SSE 8.1 mph - N/A   Clear
9:55 PM 37.4 °F 30.8 °F 30.2 °F 75% 30.07 in 10.0 mi SSE 9.2 mph - N/A   Clear
10:15 PM 35.6 °F 29.2 °F 30.2 °F 81% 30.07 in 10.0 mi SSE 8.1 mph - N/A   Clear
10:35 PM 37.4 °F 30.8 °F 28.4 °F 70% 30.07 in 10.0 mi SSE 9.2 mph - N/A   Clear
10:55 PM 35.6 °F 28.6 °F 28.4 °F 75% 30.07 in 10.0 mi SSE 9.2 mph - N/A   Clear
11:15 PM 35.6 °F 28.0 °F 28.4 °F 75% 30.07 in 10.0 mi SSE 10.4 mph - N/A   Clear
11:35 PM 33.8 °F 25.8 °F 30.2 °F 87% 30.07 in 10.0 mi SSE 10.4 mph - N/A   Clear
11:55 PM 35.6 °F 28.0 °F 30.2 °F 81% 30.07 in 10.0 mi SSE 10.4 mph - N/A   Mostly Cloudy